Date,TemperatureHighF,TemperatureAvgF,TemperatureLowF,DewpointHighF,DewpointAvgF,DewpointLowF,HumidityHigh,HumidityAvg,HumidityLow,PressureMaxIn,PressureMinIn,WindSpeedMaxMPH,WindSpeedAvgMPH,GustSpeedMaxMPH,PrecipitationSumIn
2013-1-1,35.5,32.3,27.6,19.2,17.4,16.1,66,54,46,30.20,29.60,18,4,18,0.00
2013-1-2,30.7,26.1,21.9,19.3,17.7,16.7,82,71,58,30.03,29.63,10,2,10,0.00
2013-1-3,32.0,29.6,21.9,17.7,15.1,11.7,68,55,49,30.13,30.03,14,4,14,0.00
2013-1-4,24.7,20.3,14.2,13.0,9.8,8.0,77,63,56,30.33,30.10,6,0,6,0.00
2013-1-5,22.3,18.2,14.8,12.5,10.8,8.5,80,72,65,30.32,29.89,7,1,7,0.00
2013-1-6,22.6,18.5,13.1,12.1,9.9,8.2,82,69,56,29.90,29.72,8,1,8,0.00
2013-1-7,17.9,12.8,4.2,11.5,7.2,0.8,87,78,72,30.00,29.65,7,1,7,0.00
2013-1-8,6.2,-1.2,-3.5,2.8,-5.2,-7.8,88,83,81,30.66,30.00,4,0,4,0.00
2013-1-9,9.1,3.2,-2.9,4.4,-0.8,-6.9,85,83,78,30.74,30.45,8,1,8,0.00
2013-1-10,11.6,9.1,6.1,8.6,5.6,1.9,88,85,81,30.62,30.42,8,1,8,0.00
2013-1-11,17.9,13.4,11.2,14.2,10.3,6.8,91,87,82,30.71,30.39,7,1,7,0.00
2013-1-12,32.1,23.1,12.9,24.0,19.0,10.5,92,85,70,30.71,30.21,12,2,12,0.00
2013-1-13,38.3,33.8,30.0,31.9,29.1,23.5,100,83,68,30.22,29.99,12,2,12,0.05
2013-1-14,39.1,33.8,26.3,33.2,30.9,24.8,95,89,77,30.29,29.68,21,3,21,0.57
2013-1-15,26.2,13.0,8.3,24.6,10.0,5.0,94,88,86,30.73,30.29,20,3,20,0.00
2013-1-16,13.7,11.0,6.7,10.1,7.2,3.4,89,84,78,30.75,30.35,13,2,13,0.00
2013-1-17,13.1,2.7,-7.5,9.7,-2.0,-13.0,86,80,72,30.71,30.32,19,4,21,0.00
2013-1-18,2.0,-5.3,-10.7,-8.7,-13.1,-16.9,76,68,59,31.01,30.71,15,3,15,0.00
2013-1-19,8.7,5.8,-1.0,-3.0,-6.7,-10.4,65,56,51,31.01,30.65,21,6,21,0.00
2013-1-20,10.2,7.7,3.6,6.2,2.6,-6.4,87,80,59,30.65,30.56,9,1,9,0.00
2013-1-21,7.9,5.9,3.4,4.6,1.0,-2.2,87,80,73,30.68,30.57,11,1,11,0.00
2013-1-22,11.7,8.1,3.8,4.0,1.4,-1.0,81,74,70,30.57,30.28,18,4,20,0.00
2013-1-23,8.6,4.7,0.4,1.7,-2.6,-8.8,79,71,65,30.28,30.15,23,4,23,0.00
2013-1-24,0.3,-5.5,-10.3,-8.0,-14.4,-18.5,72,64,61,30.41,30.21,22,5,22,0.00
2013-1-25,20.8,-16.2,-24.2,17.0,-23.2,-29.8,85,70,61,30.78,30.41,15,1,15,0.00
2013-1-26,-19.0,-24.9,-30.2,-24.4,-30.4,-36.0,76,74,72,30.79,30.61,3,0,3,0.00
2013-1-27,-29.8,-33.0,-36.1,-33.7,-39.0,-42.5,86,71,69,31.26,30.79,5,0,5,0.00
2013-1-28,-4.5,-19.1,-36.2,-15.4,-26.1,-42.3,77,69,56,31.30,30.70,17,3,17,0.00
2013-1-29,-3.7,-7.3,-11.3,-12.2,-16.6,-19.1,76,63,53,30.70,30.47,19,2,19,0.00
2013-1-30,9.6,1.1,-7.5,4.4,-4.3,-12.5,81,78,74,30.53,30.25,6,0,6,0.00
2013-1-31,8.8,7.0,5.2,5.0,3.1,0.1,87,84,76,30.65,30.27,6,1,6,0.00
2013-2-1,15.8,9.0,3.5,9.5,4.0,0.3,89,80,69,30.71,30.42,13,2,13,0.00
2013-2-2,21.8,14.9,8.6,10.8,6.5,2.3,83,69,59,30.42,30.03,11,1,11,0.00
2013-2-3,16.1,12.2,9.5,9.7,7.1,5.2,85,79,73,30.04,29.84,7,1,7,0.00
2013-2-4,16.1,12.4,9.4,12.4,9.1,5.6,90,87,84,30.18,29.99,5,0,5,0.00
2013-2-5,13.6,7.0,3.5,10.9,3.9,0.3,89,87,84,30.17,30.13,5,0,5,0.00
2013-2-6,7.5,3.9,1.8,4.4,0.3,-2.1,87,85,83,30.24,30.12,3,0,3,0.00
2013-2-7,11.8,7.0,-0.7,8.9,3.8,-4.3,89,86,83,30.24,29.84,5,0,5,0.00
2013-2-8,10.9,5.4,0.9,8.0,2.0,-2.9,89,86,82,30.36,29.87,5,0,5,0.00
2013-2-9,33.0,25.3,9.2,23.0,17.6,6.4,90,73,63,30.36,29.52,17,5,17,0.00
2013-2-10,36.9,27.0,10.1,26.7,19.8,6.8,90,75,65,29.96,29.43,14,3,14,0.02
2013-2-11,19.4,15.9,9.2,15.6,12.9,6.4,90,88,84,30.23,29.96,9,1,9,0.00
2013-2-12,15.3,11.5,7.6,12.0,8.6,4.6,90,88,85,30.32,30.23,5,0,5,0.00
2013-2-13,26.1,21.1,15.3,16.4,12.8,9.7,85,70,61,30.32,30.26,9,2,9,0.00
2013-2-14,28.7,26.0,22.6,15.4,12.3,10.4,71,56,47,30.26,29.82,17,4,17,0.00
2013-2-15,23.3,8.1,-4.0,17.6,3.4,-8.4,92,81,73,30.57,29.92,21,2,21,0.00
2013-2-16,2.7,-2.7,-7.7,-1.8,-7.3,-11.7,92,80,74,30.66,30.45,7,1,7,0.00
2013-2-17,1.2,-5.0,-9.6,-4.8,-10.0,-14.7,81,78,74,30.73,30.38,15,2,15,0.00
2013-2-18,-9.5,-14.4,-17.9,-14.7,-19.5,-22.9,80,77,73,30.85,30.73,10,1,10,0.00
2013-2-19,-2.1,-10.2,-18.8,-11.1,-17.5,-24.8,78,70,62,30.74,30.17,17,3,18,0.00
2013-2-20,5.0,-2.1,-7.5,-5.0,-10.1,-14.2,79,68,59,30.17,29.94,20,4,20,0.00
2013-2-21,0.3,-3.1,-5.6,-6.8,-9.2,-11.1,80,75,65,29.99,29.90,16,2,16,0.00
2013-2-22,-5.2,-8.5,-13.2,-11.0,-13.6,-17.9,90,78,73,30.19,29.93,5,1,5,0.00
2013-2-23,3.7,-2.8,-11.3,-3.7,-9.1,-16.8,80,74,66,30.12,29.88,9,1,9,0.00
2013-2-24,6.7,0.4,-4.5,-1.1,-5.4,-8.9,84,76,64,30.25,29.91,5,1,5,0.00
2013-2-25,27.8,13.8,-0.1,14.8,6.0,-4.2,87,72,53,30.29,30.24,7,1,7,0.00
2013-2-26,27.1,20.9,14.2,11.0,8.2,4.3,70,58,47,30.28,29.97,14,3,14,0.00
2013-2-27,30.2,25.2,20.0,14.8,11.4,8.5,62,55,50,29.97,29.81,15,5,15,0.00
2013-2-28,32.6,25.1,17.9,14.0,10.3,7.6,66,53,41,29.95,29.85,8,1,8,0.02
2013-3-1,18.0,8.8,5.2,8.2,4.0,0.1,87,80,65,30.53,29.95,7,1,7,0.00
2013-3-2,18.0,10.5,4.0,11.7,6.1,0.5,95,82,75,30.68,30.53,7,1,7,0.00
2013-3-3,25.0,14.9,6.0,16.5,9.5,2.5,89,79,66,30.93,30.68,5,0,5,0.00
2013-3-4,29.9,21.2,11.5,17.8,11.8,7.0,85,68,55,30.97,30.78,6,0,6,0.08
2013-3-5,32.2,23.9,16.7,17.0,11.2,8.1,71,58,48,30.78,30.41,5,1,5,0.03
2013-3-6,21.0,16.8,12.1,9.2,6.3,3.3,74,63,55,30.42,30.36,5,1,6,0.00
2013-3-7,38.8,29.8,17.4,19.3,15.2,9.0,70,55,43,30.36,29.90,21,5,21,0.01
2013-3-8,41.2,36.9,32.2,25.3,20.4,16.0,60,51,45,30.07,29.94,13,3,13,0.16
2013-3-9,36.5,28.1,19.3,25.5,20.6,13.0,89,73,61,30.48,30.07,16,2,16,0.05
2013-3-10,26.5,19.9,12.9,23.6,14.8,6.9,92,80,67,30.80,30.48,13,2,15,0.00
2013-3-11,24.6,15.7,9.8,13.9,8.7,4.5,88,74,62,31.11,30.80,15,1,15,0.00
2013-3-12,21.9,14.4,6.8,6.1,0.7,-5.5,74,56,34,31.11,30.87,11,2,11,0.00
2013-3-13,14.2,9.2,4.1,-1.4,-5.4,-7.7,58,51,45,30.87,30.76,23,4,23,0.00
2013-3-14,13.0,2.8,-6.9,-5.7,-12.8,-20.2,53,47,40,30.78,30.70,22,10,28,0.00
2013-3-15,19.3,10.1,4.3,-3.5,-9.5,-13.4,49,40,31,30.72,30.47,21,7,21,0.00
2013-3-16,22.5,14.1,7.4,2.8,-3.4,-10.1,53,45,40,30.70,30.52,17,5,17,0.00
2013-3-17,16.4,9.7,2.7,1.0,-2.1,-5.2,76,58,48,30.81,30.67,7,1,7,0.00
2013-3-18,16.7,7.9,-0.2,1.7,-2.7,-6.5,77,62,49,30.67,30.53,17,2,17,0.00
2013-3-19,17.1,7.8,0.6,0.8,-4.8,-10.3,67,56,41,30.66,30.56,16,3,16,0.00
2013-3-20,7.0,0.8,-7.1,-2.0,-8.4,-14.4,76,65,56,30.57,30.46,9,2,9,0.00
2013-3-21,16.7,7.7,0.1,8.3,1.4,-4.1,84,75,53,30.65,30.53,10,2,10,0.00
2013-3-22,28.1,19.3,11.8,12.0,4.6,-1.8,75,52,45,30.56,30.18,18,4,18,0.00
2013-3-23,19.0,2.6,-4.3,14.4,-6.0,-12.1,83,67,49,30.59,30.19,22,4,22,0.00
2013-3-24,12.5,3.7,-6.2,3.6,-5.1,-14.6,84,67,51,30.58,30.29,7,1,7,0.00
2013-3-25,9.4,3.0,-0.8,3.0,-1.9,-6.0,91,80,71,30.29,30.14,18,2,18,0.00
2013-3-26,5.5,-2.2,-10.5,-5.8,-10.3,-17.6,79,68,54,30.75,30.29,18,4,18,0.00
2013-3-27,5.9,-3.2,-14.5,-6.9,-12.2,-19.3,80,65,53,30.82,30.69,11,2,11,0.00
2013-3-28,28.1,15.9,1.2,10.4,1.2,-7.6,67,53,41,30.69,30.41,9,2,9,0.04
2013-3-29,39.7,30.8,22.6,20.6,13.7,8.3,56,49,40,30.41,30.33,11,2,11,0.19
2013-3-30,36.9,28.0,16.6,19.2,14.9,10.0,82,58,44,30.67,30.37,8,1,8,0.03
2013-3-31,36.1,29.9,23.2,27.1,21.0,14.7,92,69,58,30.72,30.61,8,1,8,0.01
2013-4-1,35.5,29.1,24.4,25.1,21.8,14.9,92,75,56,30.61,30.53,16,3,16,0.02
2013-4-2,33.7,24.7,15.8,19.6,14.0,10.0,78,64,50,30.69,30.56,17,2,17,0.00
2013-4-3,30.2,21.0,13.9,13.2,6.8,-1.2,72,55,41,30.98,30.69,24,5,24,0.00
2013-4-4,26.1,18.0,11.9,2.4,-0.8,-4.3,55,43,31,30.99,30.60,25,8,25,0.00
2013-4-5,15.0,9.7,-0.4,0.5,-5.8,-10.9,61,49,40,30.60,30.25,32,10,32,0.00
2013-4-6,17.7,7.6,-1.1,0.7,-6.1,-11.4,62,53,42,30.25,30.13,21,4,22,0.00
2013-4-7,9.0,4.6,0.5,1.7,-1.9,-7.5,85,74,54,30.43,30.15,16,2,16,0.00
2013-4-8,14.8,5.2,-3.1,7.5,0.5,-7.4,85,81,69,30.46,29.98,13,2,13,0.00
2013-4-9,12.3,7.3,4.5,7.0,3.2,0.3,92,83,77,29.98,29.64,17,2,17,0.00
2013-4-10,14.1,5.5,-2.9,2.7,-2.5,-9.3,90,70,54,30.48,29.95,17,3,17,0.00
2013-4-11,5.9,-0.2,-7.3,-1.7,-7.3,-11.8,81,71,65,30.79,30.48,9,1,9,0.00
2013-4-12,22.3,10.2,-1.0,7.8,-0.0,-5.4,83,64,48,30.89,30.79,10,2,10,0.00
2013-4-13,24.4,14.5,3.6,8.3,0.6,-4.7,69,54,43,31.00,30.88,11,2,11,0.00
2013-4-14,23.4,16.9,8.4,17.7,8.1,-1.4,84,68,51,31.07,31.00,11,2,11,0.00
2013-4-15,27.5,21.9,18.4,14.3,7.9,5.0,80,55,41,31.05,30.95,23,7,23,0.00
2013-4-16,26.7,20.5,14.1,14.5,7.6,2.6,75,57,46,30.95,30.76,24,5,24,0.00
2013-4-17,31.2,21.9,13.5,15.7,8.8,4.7,72,57,47,30.89,30.76,29,6,29,0.04
2013-4-18,30.4,22.2,13.8,11.0,6.0,2.0,61,50,37,30.94,30.88,20,5,20,0.01
2013-4-19,37.2,27.3,16.6,18.6,8.7,4.6,62,46,29,30.98,30.90,18,4,19,0.07
2013-4-20,40.4,32.5,23.4,18.0,10.6,3.5,54,40,31,30.91,30.76,12,2,12,0.05
2013-4-21,42.6,31.8,20.8,18.6,12.8,8.1,62,46,30,30.85,30.79,12,2,12,0.00
2013-4-22,43.4,34.1,21.6,18.9,13.6,7.8,60,43,33,30.95,30.85,13,2,13,0.00
2013-4-23,47.7,36.2,26.6,24.5,18.3,12.0,68,48,34,30.88,30.65,19,4,27,0.00
2013-4-24,35.2,31.4,25.8,29.5,25.5,16.1,93,79,50,30.65,30.44,36,6,36,0.19
2013-4-25,32.3,24.8,16.3,19.2,7.4,-2.3,74,48,36,30.58,30.47,17,4,17,0.01
2013-4-26,32.1,22.0,14.1,22.5,11.6,1.6,89,65,44,30.50,30.10,14,2,14,0.01
2013-4-27,29.2,22.7,15.3,18.2,9.1,-3.2,90,58,37,30.64,30.16,22,5,22,0.01
2013-4-28,34.7,21.5,8.5,19.0,4.7,-6.5,67,48,37,30.67,30.60,22,2,22,0.00
2013-4-29,32.6,26.4,19.2,25.0,18.7,11.7,93,73,63,30.63,30.56,19,2,19,0.00
2013-4-30,32.9,27.7,23.6,29.1,24.8,20.3,94,89,75,30.56,30.34,13,2,13,0.13
2013-5-1,34.4,26.0,19.7,26.3,19.9,10.5,89,78,63,30.34,30.14,22,4,22,0.16
2013-5-2,38.2,27.0,16.8,22.8,16.6,9.4,80,65,51,30.40,30.19,16,2,16,0.04
2013-5-3,37.2,30.7,25.5,29.5,24.7,17.9,89,78,61,30.41,30.31,19,3,19,0.01
2013-5-4,34.7,26.4,18.5,24.6,19.8,13.7,94,77,59,30.47,30.36,15,2,15,0.07
2013-5-5,40.5,30.8,21.5,19.4,16.2,10.0,81,56,35,30.60,30.47,13,3,16,0.00
2013-5-6,44.6,32.5,23.3,22.6,15.0,8.2,62,49,31,30.68,30.59,20,3,20,0.00
2013-5-7,45.7,35.4,26.2,24.0,18.4,13.1,63,50,33,30.72,30.67,21,3,21,0.00
2013-5-8,50.9,38.1,27.7,24.6,20.3,15.5,63,49,32,30.80,30.71,19,3,19,0.00
2013-5-9,53.6,44.3,32.1,26.7,22.8,19.7,67,44,29,30.82,30.65,14,2,14,0.00
2013-5-10,54.0,47.4,40.2,27.8,24.5,19.5,52,41,31,30.67,30.38,12,2,12,0.00
2013-5-11,56.8,48.0,39.5,31.7,26.3,19.4,66,43,32,30.38,30.09,15,2,15,0.00
2013-5-12,50.6,42.0,34.3,31.8,29.0,24.8,76,61,39,30.09,29.90,24,4,31,0.00
2013-5-13,34.1,28.5,20.8,24.2,11.7,4.1,67,49,38,30.11,29.93,22,5,22,0.00
2013-5-14,40.0,31.6,20.3,18.8,14.9,9.4,72,51,36,30.14,30.08,13,2,13,0.00
2013-5-15,46.9,37.0,26.1,21.7,16.5,9.4,56,43,34,30.15,30.08,21,3,21,0.00
2013-5-16,48.9,40.9,31.5,28.6,23.2,17.9,64,50,33,30.11,29.85,21,3,21,0.00
2013-5-17,39.4,33.3,24.6,31.4,28.1,21.8,91,81,62,30.10,29.81,21,4,21,0.05
2013-5-18,32.4,25.9,19.1,21.9,13.4,8.7,89,60,39,30.67,30.10,21,5,21,0.03
2013-5-19,43.7,33.0,17.0,21.4,14.4,9.2,74,48,32,31.05,30.68,17,4,17,0.00
2013-5-20,50.2,41.1,29.3,22.2,17.2,13.8,57,39,27,31.10,30.89,15,3,15,0.00
2013-5-21,57.6,47.8,34.9,24.0,19.9,14.6,50,34,23,30.90,30.58,17,2,17,0.00
2013-5-22,65.3,54.1,42.2,32.4,26.9,20.6,53,35,26,30.58,30.37,19,3,19,0.00
2013-5-23,63.1,52.4,41.9,40.6,34.1,26.7,65,50,39,30.53,30.41,11,1,11,0.00
2013-5-24,66.1,56.7,45.2,42.4,38.5,32.9,73,52,36,30.55,30.39,14,2,14,0.00
2013-5-25,74.0,63.5,52.1,38.3,33.3,29.1,44,33,21,30.39,30.20,16,3,16,0.00
2013-5-26,75.7,64.2,48.7,39.0,34.9,29.0,48,35,24,30.26,30.17,17,2,17,0.00
2013-5-27,70.8,62.7,57.0,41.7,38.0,34.9,47,40,33,30.26,30.20,13,2,13,0.00
2013-5-28,78.8,68.7,57.5,43.8,38.9,33.9,45,34,26,30.16,30.06,5,2,17,0.00
2013-5-29,79.5,70.6,60.4,40.7,36.9,32.9,40,30,20,30.08,30.02,19,4,19,0.00
2013-5-30,80.2,69.0,58.3,45.1,39.1,34.6,43,34,21,30.23,30.08,12,2,13,0.00
2013-5-31,79.7,68.0,56.8,50.3,41.5,31.3,66,40,19,30.35,30.23,25,2,25,0.00
2013-6-1,75.5,66.1,55.9,44.1,38.6,31.6,47,37,30,30.47,30.35,20,3,20,0.00
2013-6-2,76.8,65.9,51.5,47.5,42.5,38.0,68,44,31,30.45,30.25,22,2,22,0.00
2013-6-3,59.9,54.5,49.1,49.0,46.2,43.7,91,74,61,30.29,30.06,21,2,21,0.01
2013-6-4,58.3,51.7,47.4,48.0,45.8,44.0,98,81,60,30.06,29.96,19,2,19,0.04
2013-6-5,51.0,47.6,44.6,49.3,45.9,42.5,96,94,90,30.30,30.02,18,3,21,0.27
2013-6-6,61.0,53.1,44.6,49.4,45.9,41.9,96,78,55,30.32,30.20,15,1,15,0.01
2013-6-7,67.5,58.6,49.3,48.8,44.6,40.9,80,61,40,30.33,30.22,14,1,14,0.00
2013-6-8,69.4,61.7,52.9,49.8,44.8,41.5,72,55,40,30.51,30.33,19,1,19,0.00
2013-6-9,64.3,56.5,47.8,47.7,42.8,38.2,76,61,44,30.63,30.51,20,3,22,0.00
2013-6-10,55.9,50.6,46.0,45.5,42.4,40.6,92,74,60,30.69,30.63,19,3,19,0.00
2013-6-11,63.2,53.0,43.2,49.8,43.3,36.3,86,70,49,30.70,30.55,16,1,16,0.03
2013-6-12,66.7,59.8,48.4,38.4,35.4,32.6,59,41,30,30.57,30.47,21,5,21,0.00
2013-6-13,71.9,64.2,51.4,41.5,36.6,30.5,56,37,22,30.54,30.47,20,4,20,0.00
2013-6-14,77.2,69.3,57.8,49.9,41.0,33.7,55,37,26,30.56,30.50,13,2,13,0.00
2013-6-15,78.7,69.2,57.2,49.8,42.9,32.4,49,39,30,30.64,30.55,11,1,11,0.00
2013-6-16,82.7,75.2,65.5,56.6,52.2,45.6,55,45,38,30.63,30.52,15,2,15,0.00
2013-6-17,80.3,74.6,65.9,54.0,43.6,35.4,58,35,20,30.59,30.48,26,5,26,0.00
2013-6-18,81.6,73.5,63.9,47.0,43.0,39.0,41,34,26,30.49,30.26,18,6,23,0.00
2013-6-19,80.9,75.4,67.6,47.2,44.2,41.5,40,33,27,30.28,30.17,20,5,24,0.00
2013-6-20,79.3,72.7,63.0,50.6,45.5,40.7,52,39,28,30.29,30.15,13,1,14,0.00
2013-6-21,71.3,62.6,56.7,55.7,50.4,44.2,90,66,39,30.29,30.15,15,2,15,0.01
2013-6-22,69.6,62.3,51.1,50.1,44.7,40.8,80,55,38,30.29,30.11,16,2,16,0.00
2013-6-23,78.2,69.7,58.2,51.9,45.6,39.8,54,43,29,30.11,29.97,16,2,17,0.00
2013-6-24,82.5,74.6,62.7,53.6,48.1,44.6,54,40,28,30.02,29.97,17,3,17,0.00
2013-6-25,86.8,77.8,65.9,58.3,53.1,50.5,61,43,30,30.03,29.97,22,4,22,0.00
2013-6-26,86.5,77.5,64.3,57.0,53.9,51.0,63,45,31,30.07,30.02,16,2,16,0.00
2013-6-27,78.4,71.6,65.2,61.1,57.5,51.7,82,62,47,30.35,30.07,19,2,19,0.00
2013-6-28,77.7,70.0,62.1,58.6,54.4,51.6,77,59,42,30.42,30.35,15,2,16,0.00
2013-6-29,73.1,67.0,60.1,58.1,55.4,52.7,82,67,50,30.38,30.28,7,1,7,0.00
2013-6-30,80.5,72.1,65.5,59.0,53.3,46.4,62,52,41,30.28,30.00,16,3,17,0.00
2013-7-1,74.8,65.2,56.2,52.0,48.8,45.0,82,57,40,30.01,29.81,26,2,26,0.00
2013-7-2,69.5,60.1,51.6,46.9,43.5,40.4,73,55,36,30.12,29.90,17,2,19,0.00
2013-7-3,65.1,57.5,48.5,48.3,43.5,40.7,82,61,43,30.32,30.12,14,1,15,0.00
2013-7-4,67.0,58.0,48.6,45.5,41.3,36.8,86,55,37,30.41,30.28,20,2,20,0.00
2013-7-5,61.7,53.5,45.0,48.8,44.3,41.1,95,73,50,30.48,30.38,16,1,17,0.03
2013-7-6,69.2,61.3,51.4,46.8,43.8,40.7,70,54,40,30.39,30.14,14,2,14,0.00
2013-7-7,69.0,62.1,55.0,49.2,44.2,39.5,69,52,39,30.14,29.91,18,3,19,0.00
2013-7-8,77.6,55.2,50.5,53.3,48.1,38.5,95,78,25,30.58,29.94,13,1,15,0.19
2013-7-9,60.3,54.1,47.8,51.6,49.1,46.4,99,84,67,30.41,30.14,17,2,17,0.00
2013-7-10,54.9,51.1,48.1,49.6,48.3,46.5,96,90,80,30.48,30.40,13,2,16,0.19
2013-7-11,63.8,56.8,49.1,50.4,48.3,45.7,95,75,56,30.52,30.47,13,2,15,0.00
2013-7-12,74.0,65.4,55.3,46.0,42.7,38.5,66,46,29,30.48,30.36,15,4,15,0.00
2013-7-13,78.9,69.6,56.2,49.4,43.7,39.8,61,40,29,30.41,30.36,16,2,16,0.00
2013-7-14,84.3,73.3,60.4,55.2,48.5,41.8,54,42,29,30.49,30.39,19,2,22,0.00
2013-7-15,77.6,70.4,63.8,55.9,51.8,48.8,66,52,41,30.56,30.47,16,1,16,0.00
2013-7-16,65.5,61.5,59.0,54.0,51.9,48.6,79,71,64,30.56,30.50,13,2,14,0.00
2013-7-17,69.0,61.1,55.1,52.7,50.5,48.6,84,69,49,30.51,30.45,15,2,16,0.00
2013-7-18,69.5,60.9,54.6,55.9,50.6,47.7,95,70,49,30.55,30.44,13,1,13,0.46
2013-7-19,77.7,56.6,52.2,57.0,54.1,38.4,97,93,25,30.58,30.47,22,3,22,0.29
2013-7-20,58.7,53.6,50.6,54.4,51.4,49.8,97,92,80,30.53,30.49,26,4,30,0.06
2013-7-21,61.8,56.2,50.2,53.2,50.4,47.6,94,81,68,30.59,30.52,14,1,15,0.00
2013-7-22,68.8,60.3,48.8,54.9,50.5,45.9,92,71,54,30.64,30.52,12,1,12,0.00
2013-7-23,73.3,65.1,56.3,57.7,53.7,50.0,85,67,51,30.53,30.42,15,1,17,0.00
2013-7-24,71.1,63.2,57.8,60.1,55.9,52.9,87,77,61,30.43,30.35,18,2,20,0.00
2013-7-25,70.2,62.8,56.1,56.2,50.2,44.7,85,65,43,30.46,30.37,16,2,16,0.00
2013-7-26,68.9,61.2,52.6,54.8,50.3,47.4,86,68,50,30.60,30.46,21,2,27,0.00
2013-7-27,75.2,67.0,55.8,57.9,55.1,51.7,88,67,52,30.65,30.60,18,2,19,0.00
2013-7-28,82.3,72.3,59.3,59.7,54.5,50.2,74,55,38,30.61,30.43,20,2,24,0.00
2013-7-29,75.1,68.9,60.7,56.6,54.2,50.6,75,60,45,30.51,30.43,23,3,23,0.00
2013-7-30,72.3,65.0,56.7,55.4,52.0,48.6,81,64,49,30.59,30.50,17,2,17,0.00
2013-7-31,77.0,66.0,54.0,55.1,50.8,47.4,80,60,41,30.57,30.42,14,1,16,0.00
2013-8-1,79.0,70.1,58.2,54.9,50.3,38.4,69,51,25,30.58,30.20,13,2,15,0.00
2013-8-2,80.3,73.2,64.7,53.3,48.2,43.7,58,42,29,30.23,30.09,12,1,12,0.00
2013-8-3,78.9,69.5,63.1,50.1,44.3,36.6,51,41,32,30.10,30.02,22,3,22,0.00
2013-8-4,71.6,63.5,56.5,52.6,46.1,43.3,80,54,40,30.30,30.10,27,2,27,0.01
2013-8-5,71.3,61.8,50.9,52.4,47.9,43.5,89,63,39,30.34,30.27,12,1,12,0.01
2013-8-6,76.5,67.8,55.7,48.3,44.6,41.5,65,44,31,30.35,30.20,22,3,22,0.00
2013-8-7,80.8,71.2,62.2,54.1,46.5,42.5,50,42,29,30.21,29.99,17,2,17,0.00
2013-8-8,76.5,68.7,59.0,48.8,44.7,41.6,63,43,30,30.05,29.99,12,1,12,0.00
2013-8-9,67.8,62.8,57.5,50.7,45.1,41.4,76,53,44,30.09,30.02,10,1,10,0.00
2013-8-10,64.1,59.0,55.0,53.2,47.4,44.0,85,66,52,30.40,30.08,11,1,11,0.01
2013-8-11,72.3,61.8,50.1,52.5,47.4,44.2,81,61,41,30.48,30.35,7,1,11,0.00
2013-8-12,72.6,63.4,53.6,57.2,53.0,47.8,87,70,56,30.45,30.37,10,1,12,0.00
2013-8-13,76.3,65.0,54.7,58.8,55.2,51.4,89,72,53,30.39,30.21,7,0,7,0.00
2013-8-14,66.1,62.1,55.8,55.1,53.3,50.3,88,73,63,30.29,30.20,17,1,17,0.00
2013-8-15,62.2,56.9,53.0,57.2,52.5,48.3,95,85,73,30.26,30.09,11,0,13,0.21
2013-8-16,77.6,57.7,51.5,57.4,52.9,40.0,97,85,26,30.58,30.03,10,1,15,0.01
2013-8-17,69.2,59.7,50.1,56.0,51.7,47.3,91,76,54,30.05,29.90,14,1,14,0.00
2013-8-18,66.4,59.2,51.5,54.2,50.5,46.4,88,74,56,29.95,29.89,12,1,12,0.00
2013-8-19,63.2,56.4,50.7,51.5,48.4,40.0,92,76,43,30.05,29.95,13,1,13,0.00
2013-8-20,77.5,49.4,46.6,50.0,47.5,39.6,96,94,27,30.58,30.05,12,1,15,0.71
2013-8-21,77.6,51.0,44.5,47.7,43.7,38.0,100,78,26,30.57,30.14,8,1,13,0.00
2013-8-22,77.6,53.7,44.2,50.3,44.1,37.1,93,71,26,30.58,29.99,10,1,15,0.01
2013-8-23,52.9,49.8,45.0,51.8,48.5,43.1,100,95,90,30.12,29.93,15,2,16,0.63
2013-8-24,55.3,47.6,42.3,44.1,38.7,33.2,94,72,51,30.37,30.12,12,2,12,0.00
2013-8-25,48.4,41.3,36.4,35.3,32.2,29.9,80,70,57,30.38,30.31,10,2,10,0.00
2013-8-26,59.0,50.4,39.4,37.7,33.8,29.9,71,54,40,30.27,30.21,5,3,14,0.00
2013-8-27,59.8,50.2,41.3,45.0,37.8,31.7,75,63,51,30.24,30.08,5,1,12,0.00
2013-8-28,53.5,49.8,45.8,46.3,43.9,41.6,95,81,65,30.14,30.08,5,1,13,0.02
2013-8-29,51.2,48.2,46.1,48.2,45.0,41.9,95,89,76,30.28,30.08,10,1,11,0.03
2013-8-30,51.0,47.4,41.7,47.4,43.8,35.9,100,88,71,30.41,30.29,16,1,17,0.03
2013-8-31,47.5,41.6,36.4,36.1,30.5,23.0,84,66,38,30.43,30.37,12,0,12,0.00
2013-9-1,48.6,43.3,38.3,40.6,32.4,24.0,87,66,52,30.37,30.12,12,3,13,0.02
2013-9-2,56.7,49.8,43.9,52.7,46.6,39.7,95,89,76,30.12,29.82,9,2,9,0.40
2013-9-3,63.9,55.9,49.8,53.5,48.3,45.1,91,76,57,29.86,29.60,19,2,25,0.11
2013-9-4,53.7,49.3,46.3,50.9,46.8,42.8,95,91,81,30.09,29.75,19,2,20,0.08
2013-9-5,55.4,47.7,40.6,46.5,43.0,39.0,100,84,69,30.41,30.09,19,1,19,0.00
2013-9-6,53.2,47.4,42.0,45.4,41.8,38.4,90,81,63,30.44,29.91,15,3,16,0.06
2013-9-7,52.6,47.8,43.3,50.4,45.9,42.0,97,93,85,30.10,29.90,8,1,11,0.02
2013-9-8,51.5,48.5,44.5,48.4,46.6,43.4,100,93,83,30.21,29.90,13,2,13,0.26
2013-9-9,58.4,50.6,43.8,47.4,44.5,40.5,97,81,62,30.25,30.11,14,3,14,0.01
2013-9-10,63.3,56.1,48.6,47.9,43.1,39.1,75,62,47,30.12,30.07,13,2,13,0.00
2013-9-11,55.2,49.3,45.5,47.2,44.3,41.1,96,84,66,30.21,29.98,23,2,26,0.52
2013-9-12,55.7,47.5,39.4,47.4,43.2,38.0,97,86,68,30.38,30.22,18,2,20,0.00
2013-9-13,48.7,46.2,43.0,46.1,43.3,40.3,94,90,81,30.39,30.28,5,0,5,0.03
2013-9-14,50.4,44.5,38.1,48.6,41.7,33.8,96,90,69,30.52,29.99,13,1,15,0.07
2013-9-15,49.1,40.8,32.9,38.4,32.2,28.6,96,73,50,30.57,30.43,16,2,16,0.00
2013-9-16,47.7,38.8,34.9,30.7,27.4,25.3,76,64,50,30.43,30.28,20,4,20,0.00
2013-9-17,49.7,43.9,32.6,28.1,27.4,25.3,77,54,43,30.21,30.07,12,5,19,0.00
2013-9-18,32.6,30.7,28.3,29.6,27.7,25.8,93,89,76,30.19,30.08,9,0,9,0.02
2013-9-19,35.1,30.8,27.5,31.0,27.6,24.8,92,88,77,30.18,30.04,12,1,12,0.00
2013-9-20,32.7,28.6,24.6,27.4,24.8,22.5,93,86,77,30.04,29.66,10,1,10,0.00
2013-9-21,36.0,31.0,27.2,26.1,21.5,17.9,80,67,57,29.68,29.58,16,3,16,0.00
2013-9-22,30.9,28.8,25.8,27.7,24.5,20.5,93,84,73,29.98,29.68,14,1,14,0.00
2013-9-23,34.8,28.3,23.1,28.3,24.6,20.9,93,86,67,30.35,29.98,10,0,10,0.05
2013-9-24,36.5,31.7,27.1,25.7,23.6,20.8,88,72,59,30.50,30.22,16,4,16,0.00
2013-9-25,51.9,43.9,36.5,38.5,32.3,24.0,84,64,53,30.22,29.84,15,3,15,0.02
2013-9-26,43.4,39.2,33.8,39.2,35.5,31.7,94,87,77,30.08,29.77,12,1,12,0.01
2013-9-27,53.1,46.2,38.6,36.4,34.5,32.0,78,64,50,29.77,29.60,15,4,15,0.00
2013-9-28,45.4,39.3,36.2,38.2,34.2,31.5,92,82,69,29.78,29.68,13,1,15,0.03
2013-9-29,46.0,38.8,36.1,36.7,33.1,28.9,93,80,64,30.08,29.78,17,2,18,0.02
2013-9-30,37.5,34.9,31.3,29.5,27.9,25.9,82,76,68,30.29,30.08,14,2,14,0.00
2013-10-1,35.1,31.5,29.2,31.2,29.1,26.2,95,91,82,30.39,30.29,6,0,8,0.00
2013-10-2,43.8,37.8,32.0,34.1,31.3,29.3,91,78,65,30.40,30.29,8,1,8,0.01
2013-10-3,48.2,42.1,36.3,35.3,32.0,29.7,81,68,56,30.30,30.05,10,1,10,0.00
2013-10-4,38.6,34.4,29.4,33.0,30.1,27.6,94,84,75,30.30,30.03,9,1,10,0.00
2013-10-5,40.9,33.4,28.1,32.8,29.9,26.3,95,88,71,30.31,30.13,12,2,12,0.00
2013-10-6,42.7,36.7,31.6,32.6,29.7,27.3,91,76,63,30.15,30.10,8,1,9,0.00
2013-10-7,33.2,30.9,30.0,31.0,29.3,28.5,96,94,87,30.32,30.15,12,1,12,0.01
2013-10-8,45.9,40.8,33.3,33.8,30.3,25.7,86,66,57,30.18,29.40,19,5,19,0.00
2013-10-9,39.3,34.2,31.5,34.7,32.0,30.0,95,91,77,30.13,29.41,26,5,26,0.03
2013-10-10,35.3,31.6,26.3,30.2,27.8,24.0,95,86,73,30.16,30.09,16,3,18,0.02
2013-10-11,42.7,37.1,32.6,32.8,29.7,27.3,87,75,63,30.29,30.14,9,1,9,0.00
2013-10-12,50.0,44.1,38.6,33.8,31.7,30.2,72,62,52,30.25,30.12,16,4,17,0.00
2013-10-13,47.2,44.5,35.8,35.3,31.0,29.2,93,60,52,30.12,29.82,18,5,19,0.04
2013-10-14,42.7,36.8,32.9,37.7,34.1,31.4,95,90,79,30.37,29.99,9,1,11,0.02
2013-10-15,46.0,41.9,36.8,38.4,33.5,30.5,87,72,59,30.38,30.26,10,2,10,0.02
2013-10-16,51.7,48.1,41.6,40.6,37.7,35.1,85,68,56,30.50,30.33,10,2,10,0.01
2013-10-17,55.4,50.4,44.6,43.2,37.8,34.4,78,62,52,30.41,30.11,13,2,13,0.01
2013-10-18,53.2,47.0,43.1,36.2,33.2,30.4,72,59,48,30.12,29.99,20,4,21,0.00
2013-10-19,52.6,44.9,37.2,36.3,31.4,26.9,82,60,47,30.00,29.72,26,6,26,0.00
2013-10-20,43.9,40.0,36.0,33.6,30.6,28.4,85,69,60,30.32,29.99,12,2,12,0.00
2013-10-21,37.7,34.4,30.7,30.7,27.2,25.0,82,75,65,30.55,30.32,6,1,6,0.00
2013-10-22,37.4,32.8,27.8,27.0,24.3,22.9,83,71,60,30.64,30.55,8,2,9,0.00
2013-10-23,32.4,27.4,22.8,26.1,23.1,20.8,93,84,75,30.61,30.33,7,0,7,0.00
2013-10-24,37.1,28.0,19.5,24.9,21.1,17.3,93,77,51,30.45,30.16,15,3,15,0.00
2013-10-25,42.2,36.8,29.3,27.7,24.4,22.5,76,61,53,30.46,30.18,10,2,11,0.00
2013-10-26,36.6,31.7,27.4,26.2,24.1,22.5,83,73,62,30.95,30.44,15,2,15,0.00
2013-10-27,43.7,40.7,36.6,35.5,25.7,19.7,90,56,42,30.80,30.08,18,4,18,0.09
2013-10-28,54.5,45.0,36.3,38.9,36.4,32.9,92,73,53,30.08,29.43,19,5,20,0.05
2013-10-29,36.3,32.8,30.0,34.6,31.1,27.9,100,93,91,29.95,29.66,22,3,23,0.13
2013-10-30,35.8,31.5,28.3,29.4,27.0,24.7,94,83,73,29.92,29.63,10,2,10,0.00
2013-10-31,28.5,25.5,24.1,24.9,23.1,21.6,92,90,86,30.15,29.70,6,0,6,0.00
2013-11-1,25.4,23.4,22.3,23.7,21.4,20.2,94,92,88,30.57,30.15,9,1,9,0.00
2013-11-2,25.5,22.2,20.4,23.2,20.3,18.3,93,92,91,30.58,30.38,0,0,0,0.00
2013-11-3,33.8,29.4,23.8,25.7,22.8,20.7,90,77,66,30.30,30.06,4,1,8,0.00
2013-11-4,30.9,26.5,21.8,22.3,20.4,17.1,88,78,68,30.06,29.89,5,0,5,0.00
2013-11-5,23.2,20.1,16.8,19.6,16.9,13.6,98,87,80,30.69,29.97,17,2,17,0.00
2013-11-6,16.8,13.6,10.7,13.6,9.3,5.1,92,83,71,30.82,30.61,17,3,17,0.00
2013-11-7,19.7,13.9,8.3,7.7,4.5,2.2,76,66,55,30.61,30.41,21,5,21,0.00
2013-11-8,14.5,8.1,2.2,11.9,4.3,-1.8,90,84,76,30.73,30.49,8,1,8,0.00
2013-11-9,20.9,18.2,14.2,18.4,15.5,11.5,91,89,85,30.65,30.23,8,1,8,0.00
2013-11-10,27.4,24.3,20.4,25.9,22.4,17.9,94,92,90,30.38,30.22,16,2,18,0.00
2013-11-11,21.3,12.9,5.0,19.6,10.5,1.7,93,90,86,30.82,30.38,9,1,9,0.00
2013-11-12,11.3,7.8,3.5,8.5,4.7,0.3,98,87,83,30.82,30.57,8,1,8,0.00
2013-11-13,36.4,17.1,10.6,34.6,14.6,6.2,100,90,81,30.58,30.08,42,3,42,0.00
2013-11-14,36.9,27.2,14.0,33.2,24.4,10.1,94,89,83,30.52,30.07,46,11,46,0.22
2013-11-15,14.7,9.9,7.2,10.7,6.9,4.3,89,87,83,30.62,30.52,23,1,23,0.00
2013-11-16,12.3,7.5,1.1,9.7,4.5,-2.6,90,87,84,30.86,30.58,10,1,10,0.00
2013-11-17,2.1,-1.3,-4.4,-1.1,-4.8,-8.3,86,85,83,30.96,30.86,3,0,3,0.00
2013-11-18,0.8,-0.8,-3.3,-2.6,-4.3,-7.1,85,84,83,30.88,30.72,2,0,2,0.00
2013-11-19,0.8,-2.9,-9.7,-2.6,-6.6,-13.9,85,84,80,30.73,30.65,0,0,0,0.00
2013-11-20,-9.4,-14.9,-18.9,-13.5,-19.2,-23.7,92,80,78,30.93,30.71,0,0,0,0.00
2013-11-21,8.0,-8.6,-16.7,0.7,-13.5,-21.5,92,78,70,30.89,30.12,13,1,13,0.00
2013-11-22,14.5,10.1,4.6,11.4,6.5,-0.1,90,85,71,30.12,29.75,9,1,9,0.00
2013-11-23,15.1,5.6,0.2,8.6,1.4,-3.2,88,83,71,30.46,29.92,9,1,9,0.00
2013-11-24,21.8,17.7,14.1,15.8,12.1,7.3,90,79,68,30.53,30.46,4,0,5,0.00
2013-11-25,18.2,11.2,5.8,15.7,8.3,2.8,90,88,84,30.56,30.44,3,0,3,0.00
2013-11-26,9.9,6.3,0.7,6.0,2.6,-2.8,87,85,81,30.58,30.46,7,0,7,0.00
2013-11-27,4.7,1.6,-0.7,1.5,-1.8,-4.3,87,85,83,30.57,30.39,4,0,5,0.00
2013-11-28,0.2,-3.3,-5.6,-3.2,-7.1,-9.4,92,83,81,30.60,30.39,9,0,9,0.00
2013-11-29,-4.3,-5.8,-7.1,-8.1,-9.7,-11.1,84,83,81,30.78,30.60,5,0,5,0.00
2013-11-30,50.0,28.8,-15.0,50.0,27.3,-20.1,92,60,50,31.30,29.53,2,0,2,0.00
2013-12-1,-6.9,-11.0,-16.6,-10.9,-15.2,-21.4,92,81,78,31.36,31.30,3,0,3,0.00
2013-12-2,2.1,-2.3,-9.5,-1.4,-6.0,-13.8,86,84,81,31.36,31.25,3,0,4,0.00
2013-12-3,12.4,6.9,-0.5,9.5,3.4,-4.4,88,85,81,31.29,31.10,6,0,6,0.00
2013-12-4,23.0,10.2,4.2,16.9,5.9,-0.1,92,83,76,31.11,30.98,8,1,8,0.00
2013-12-5,23.4,18.6,13.1,18.5,14.2,9.7,89,83,74,30.99,30.92,8,1,8,0.00
2013-12-6,27.4,24.1,19.1,24.9,20.8,15.3,95,87,77,30.98,30.88,5,0,5,0.00
2013-12-7,30.8,26.9,23.8,28.5,24.1,18.1,100,89,78,30.90,30.76,7,1,7,0.00
2013-12-8,30.1,28.6,26.6,28.9,27.2,24.8,100,94,92,30.84,30.68,9,1,9,0.00
2013-12-9,29.0,26.5,22.8,28.0,25.2,21.3,96,95,93,30.72,30.60,0,0,0,0.00
2013-12-10,23.3,10.4,5.0,21.6,6.3,-2.3,93,83,70,30.89,30.60,23,4,23,0.00
2013-12-11,5.9,4.3,2.5,0.0,-4.4,-6.3,76,66,62,30.87,30.76,27,10,27,0.00
2013-12-12,1.7,-1.9,-3.9,-8.6,-11.1,-13.8,75,64,59,30.61,30.40,32,13,41,0.00
2013-12-13,-1.1,-3.9,-6.8,-8.0,-12.1,-14.9,72,67,60,30.40,29.84,23,4,25,0.00
2013-12-14,2.8,-0.9,-5.0,-1.4,-5.5,-10.1,84,80,67,29.91,29.72,13,1,13,0.00
2013-12-15,-4.5,-9.6,-16.3,-8.9,-14.3,-21.1,81,79,77,30.77,29.91,11,0,11,0.00
2013-12-16,-15.7,-19.5,-21.8,-20.6,-24.3,-27.0,79,78,76,30.98,30.77,3,0,3,0.00
2013-12-17,-6.7,-14.4,-22.3,-10.8,-19.0,-27.4,82,79,76,31.00,30.96,4,0,4,0.00
2013-12-18,4.2,-1.5,-7.6,0.3,-5.6,-11.9,86,82,74,30.98,30.38,6,0,7,0.00
2013-12-19,6.8,4.3,1.3,3.9,0.5,-2.6,95,84,78,30.38,30.28,5,0,6,0.00
2013-12-20,7.8,6.0,3.7,2.7,0.6,-1.1,83,78,73,30.31,30.18,5,0,5,0.00
2013-12-21,12.7,10.0,5.8,9.7,6.6,0.8,89,86,76,30.24,30.12,5,0,5,0.00
2013-12-22,12.4,9.1,5.4,9.8,6.2,1.8,90,88,85,30.34,30.05,20,2,20,0.00
2013-12-23,5.4,-0.3,-4.8,3.9,-3.8,-8.6,95,84,82,30.75,30.34,17,2,17,0.00
2013-12-24,-0.9,-4.7,-10.0,-4.5,-8.4,-14.2,95,83,81,30.78,30.57,5,0,5,0.00
2013-12-25,-9.0,-14.4,-20.7,-13.1,-18.8,-25.7,92,80,77,30.62,30.53,5,0,5,0.00
2013-12-26,-13.5,-16.8,-22.9,-16.0,-21.3,-27.8,92,79,77,30.72,30.61,3,0,3,0.00
2013-12-27,-8.8,-13.5,-16.3,-13.0,-17.9,-20.8,92,80,79,30.77,30.71,4,0,4,0.00
2013-12-28,5.5,0.8,-9.0,4.1,-3.1,-13.2,96,83,80,30.75,30.60,4,0,4,0.00
2013-12-29,6.2,3.0,0.8,3.2,-0.3,-2.9,87,86,84,30.65,30.47,3,0,5,0.00
2013-12-30,6.9,4.0,2.0,3.3,0.5,-2.0,92,85,81,30.47,30.24,6,1,7,0.00
2013-12-31,22.6,8.9,5.4,14.9,4.5,1.1,86,82,72,30.32,30.02,11,2,11,0.00
2014-1-1,26.5,20.6,11.9,19.4,15.7,9.3,92,81,65,30.02,29.76,13,2,13,0.00
2014-1-2,12.6,7.5,4.3,10.2,4.3,0.6,90,87,83,30.62,29.98,6,0,6,0.00